Apalachicola, FL

3:54 PM EDT on April 29, 2017 (GMT -0400)
Apalachicola Municipal

Weather History for KAAF - January, 2014

Change the Weather History Date:

Thursday, January 2, 2014

  Actual Average Record
Temperature  
Mean Temperature 56 °F 52 °F  
Max Temperature 65 °F 63 °F 75 °F (1996)
Min Temperature 46 °F 42 °F 26 °F (1979)
Degree Days  
Heating Degree Days 9    
Month to date heating degree days 18  
Since 1 July heating degree days 319  
Cooling Degree Days 0    
Month to date cooling degree days 0  
Year to date cooling degree days 0  
Growing Degree Days 6 (Base 50)    
Moisture  
Dew Point 56 °F    
Average Humidity 77    
Maximum Humidity 93    
Minimum Humidity 61    
Precipitation  
Precipitation 0.62 in 0.12 in 1.58 in (1959)
Month to date precipitation 0.63 0.24  
Year to date precipitation 0.63 0.24  
Sea Level Pressure  
Sea Level Pressure 29.94 in    
Wind  
Wind Speed 8 mph (NNE)    
Max Wind Speed 24 mph    
Max Gust Speed 36 mph    
Visibility 6 miles    
Events Fog , Rain    
T = Trace of Precipitation, MM = Missing Value Source: NWS Daily Summary

Daily Weather History Graph

Daily Weather History Graph

Search for Another Location

Airport or City:

Trip Planner

Search our weather history database for the weather conditions in past years. The results will help you decide how hot, cold, wet, or windy it might be!

Date:

Astronomy

Jan. 02, 2014 Rise Set
Actual Time 7:35 AM EST 5:52 PM EST
Civil Twilight 7:09 AM EST 6:19 PM EST
Nautical Twilight 6:39 AM EST 6:48 PM EST
Astronomical Twilight 6:10 AM EST 7:17 PM EST
Moon 8:24 AM EST (1/2) 7:39 PM EST (1/2)
Length of Visible Light 11h 09m
Length of Day
10h 17m
New Moon, 2% of the Moon is Illuminated
Jan 2
New Moon
Jan 7
First Quarter
Jan 15
Full
Jan 24
Last Quarter
Jan 30
New

Hourly Weather History & Observations

Time (EST) Temp. Dew Point Humidity Pressure Visibility Wind Dir Wind Speed Gust Speed Precip Events Conditions
12:00 AM 59.0 °F 55.4 °F 88% 30.09 in 10.0 mi ENE 5.8 mph - 0.00 in Rain Light Rain
12:23 AM 59.0 °F 55.4 °F 88% 30.10 in 4.0 mi Calm Calm - 0.01 in Rain Rain
12:53 AM 57.9 °F 55.0 °F 90% 30.08 in 3.0 mi North 4.6 mph - 0.06 in Rain Rain
1:15 AM 57.2 °F 55.4 °F 94% 30.07 in 4.0 mi NE 3.5 mph - 0.03 in Rain Light Rain
1:25 AM 57.2 °F 55.4 °F 94% 30.07 in 3.0 mi NE 4.6 mph - 0.04 in Rain Light Rain
1:53 AM 57.9 °F 55.0 °F 90% 30.04 in 5.0 mi East 5.8 mph - 0.05 in Rain Light Rain
2:21 AM 57.2 °F 55.4 °F 94% 30.03 in 5.0 mi NE 4.6 mph - 0.01 in Rain Light Rain
2:53 AM 57.9 °F 55.0 °F 90% 30.01 in 5.0 mi ENE 4.6 mph - 0.04 in Rain Light Rain
3:53 AM 57.9 °F 55.0 °F 90% 30.01 in 7.0 mi North 5.8 mph - 0.05 in Rain Light Rain
4:45 AM 57.2 °F 55.4 °F 94% 30.00 in 6.0 mi NE 3.5 mph - 0.08 in Rain Heavy Rain
4:53 AM 57.9 °F 55.0 °F 90% 29.99 in 4.0 mi ENE 3.5 mph - 0.12 in Rain Heavy Rain
5:53 AM 57.9 °F 55.0 °F 90% 29.97 in 9.0 mi East 3.5 mph - 0.08 in Rain Light Rain
6:39 AM 57.2 °F 55.4 °F 94% 29.95 in 10.0 mi Calm Calm - 0.02 in Rain Light Rain
6:53 AM 57.9 °F 55.0 °F 90% 29.95 in 10.0 mi ENE 4.6 mph - 0.02 in Rain Light Rain
7:53 AM 59.0 °F 55.9 °F 90% 29.94 in 9.0 mi East 4.6 mph - 0.02 in Rain Light Rain
8:53 AM 60.1 °F 57.0 °F 90% 29.93 in 10.0 mi East 4.6 mph - 0.04 in Rain Light Rain
9:53 AM 61.0 °F 57.9 °F 90% 29.95 in 10.0 mi Calm Calm - 0.00 in   Overcast
10:53 AM 62.1 °F 59.0 °F 90% 29.95 in 10.0 mi East 3.5 mph - N/A   Overcast
11:53 AM 63.0 °F 60.1 °F 90% 29.92 in 10.0 mi Calm Calm - N/A   Overcast
12:49 PM 64.4 °F 60.8 °F 88% 29.89 in 1.8 mi NE 4.6 mph - 0.00 in   Overcast
12:53 PM 63.0 °F 60.1 °F 90% 29.88 in 1.2 mi ENE 4.6 mph - 0.00 in   Overcast
1:05 PM 62.6 °F 60.8 °F 94% 29.87 in 0.8 mi ENE 3.5 mph - N/A   Overcast
1:24 PM 62.6 °F 60.8 °F 94% 29.87 in 0.2 mi Calm Calm - 0.00 in Fog , Rain Light Rain
1:34 PM 64.4 °F 60.8 °F 88% 29.86 in 0.5 mi Calm Calm - 0.00 in Fog , Rain Light Rain
1:45 PM 64.4 °F 60.8 °F 88% 29.86 in 1.0 mi Calm Calm - 0.01 in Rain Heavy Rain
1:53 PM 64.0 °F 61.0 °F 90% 29.85 in 1.2 mi South 3.5 mph - 0.03 in Rain Heavy Rain
2:03 PM 64.4 °F 60.8 °F 88% 29.84 in 3.0 mi SSE 6.9 mph - 0.03 in Rain Light Rain
2:14 PM 64.4 °F 62.6 °F 94% 29.84 in 9.0 mi South 6.9 mph - 0.04 in Rain Light Rain
2:27 PM 64.4 °F 62.6 °F 94% 29.84 in 6.0 mi South 5.8 mph - 0.05 in Rain Light Rain
2:44 PM 64.4 °F 62.6 °F 94% 29.83 in 6.0 mi South 4.6 mph - 0.05 in Rain Rain
2:53 PM 64.0 °F 62.1 °F 93% 29.84 in 8.0 mi South 4.6 mph - 0.06 in Rain Light Rain
3:13 PM 64.4 °F 62.6 °F 94% 29.84 in 1.8 mi SW 5.8 mph - 0.03 in Rain Rain
3:19 PM 64.4 °F 60.8 °F 88% 29.85 in 3.0 mi WSW 9.2 mph - 0.04 in Rain Light Rain
3:32 PM 62.6 °F 60.8 °F 94% 29.85 in 3.0 mi NW 13.8 mph 24.2 mph 0.05 in Rain Light Rain
3:38 PM 62.6 °F 59.0 °F 88% 29.85 in 7.0 mi NW 12.7 mph 21.9 mph 0.05 in Rain Light Rain
3:53 PM 63.0 °F 59.0 °F 87% 29.85 in 10.0 mi North 5.8 mph - 0.05 in   Overcast
4:29 PM 62.6 °F 57.2 °F 82% 29.87 in 10.0 mi NNW 11.5 mph 19.6 mph N/A   Overcast
4:53 PM 62.1 °F 57.0 °F 84% 29.87 in 10.0 mi North 9.2 mph - N/A   Overcast
5:30 PM 60.8 °F 55.4 °F 82% 29.91 in 10.0 mi NNW 18.4 mph 25.3 mph N/A   Overcast
5:53 PM 60.1 °F 54.0 °F 80% 29.92 in 10.0 mi NNW 18.4 mph 24.2 mph N/A   Overcast
6:06 PM 60.8 °F 51.8 °F 72% 29.92 in 10.0 mi NNW 15.0 mph 23.0 mph N/A   Mostly Cloudy
6:53 PM 59.0 °F 52.0 °F 78% 29.95 in 10.0 mi NNW 12.7 mph - N/A   Scattered Clouds
7:53 PM 57.0 °F 48.9 °F 74% 29.98 in 10.0 mi NNW 19.6 mph 27.6 mph N/A   Clear
8:53 PM 53.1 °F 42.1 °F 66% 30.04 in 10.0 mi NNW 21.9 mph 29.9 mph N/A   Clear
9:53 PM 50.0 °F 37.9 °F 63% 30.08 in 10.0 mi North 17.3 mph 27.6 mph N/A   Clear
10:53 PM 48.0 °F 35.1 °F 61% 30.10 in 10.0 mi North 13.8 mph 21.9 mph N/A   Clear
11:53 PM 46.9 °F 28.0 °F 48% 30.13 in 10.0 mi North 13.8 mph 24.2 mph N/A   Clear